Location: Oberkirch
(48.5323°N, 8.0787°E)
Time: 10:22:22
(UTC+00:00)

S-56A Canister/Altair - All Passes

Search period start: 19 February 2026 00:00
Search period end: 01 March 2026 00:00
Orbit: 632 x 2485 km, 38.9° (Epoch: 19 February)

Date Brightness Start Highest point End Pass type
(mag) Time Alt. Az. Time Alt. Az. Time Alt. Az.
19 Feb - 00:08:39 10° WSW 00:14:25 40° S 00:22:48 10° ESE visible
19 Feb - 02:11:02 10° WSW 02:18:02 40° S 02:28:10 10° SE visible
19 Feb - 04:14:45 10° WSW 04:22:01 25° SSW 04:31:23 10° SSE visible
19 Feb - 21:34:06 10° S 21:37:13 16° SE 21:40:52 10° ESE night (unlit)
19 Feb - 23:34:15 10° SW 23:39:35 36° SSE 23:47:08 10° ESE night (unlit)
20 Feb - 01:36:27 10° WSW 01:42:59 40° S 01:52:28 10° ESE visible
20 Feb - 03:39:53 10° WSW 03:46:51 26° SSW 03:56:05 10° SSE visible
20 Feb - 21:00:38 10° SSE 21:02:37 12° SE 21:04:46 10° ESE night (unlit)
20 Feb - 22:59:56 10° SW 23:04:49 32° SSE 23:11:32 10° ESE night (unlit)
21 Feb - 01:01:55 10° WSW 01:07:59 39° S 01:16:49 10° ESE visible
21 Feb - 03:05:05 10° WSW 03:11:45 27° SSW 03:20:42 10° SSE visible
21 Feb - 05:12:49 10° SW 05:15:27 11° SW 05:18:17 10° SSW visible
21 Feb - 22:25:37 10° SW 22:30:06 29° SSE 22:35:59 10° ESE night (unlit)
22 Feb - 00:27:26 10° WSW 00:33:04 38° S 00:41:12 10° ESE visible
22 Feb - 02:30:23 10° WSW 02:36:40 28° SSW 02:45:17 10° SSE visible
22 Feb - 04:36:45 10° WSW 04:40:21 12° SW 04:44:23 10° SSW visible
22 Feb - 21:51:22 10° SSW 21:55:25 25° SSE 22:00:30 10° ESE night (unlit)
22 Feb - 23:52:58 10° WSW 23:58:13 37° S 00:05:38 10° ESE night (unlit)
23 Feb - 01:55:43 10° WSW 02:01:40 29° SSW 02:09:50 10° SE visible
23 Feb - 04:01:14 10° WSW 04:05:17 14° SSW 04:09:57 10° S visible
23 Feb - 21:17:10 10° SSW 21:20:46 21° SSE 21:25:04 10° ESE night (unlit)
23 Feb - 23:18:32 10° WSW 23:23:25 35° S 23:30:09 10° ESE night (unlit)
24 Feb - 01:21:08 10° WSW 01:26:42 29° SSW 01:34:24 10° SE visible
24 Feb - 03:25:59 10° WSW 03:30:15 15° SSW 03:35:17 10° S visible
24 Feb - 20:43:03 10° SSW 20:46:09 18° SSE 20:49:40 10° ESE night (unlit)
24 Feb - 22:44:06 10° WSW 22:48:40 33° S 22:54:44 10° ESE night (unlit)
25 Feb - 00:46:35 10° WSW 00:51:48 29° SSW 00:58:59 10° SE night (unlit)
25 Feb - 02:50:57 10° WSW 02:55:15 16° SSW 03:00:26 10° S visible
25 Feb - 20:09:02 10° S 20:11:32 15° SSE 20:14:15 10° ESE visible
25 Feb - 22:09:42 10° SW 22:13:57 30° S 22:19:24 10° ESE night (unlit)
26 Feb - 00:12:02 10° WSW 00:16:57 29° S 00:23:37 10° SE night (unlit)
26 Feb - 02:16:02 10° WSW 02:20:17 16° SSW 02:25:30 10° S visible
26 Feb - 19:35:13 10° S 19:36:55 12° SSE 19:38:41 10° SE visible
26 Feb - 21:35:18 10° SW 21:39:16 28° S 21:44:08 10° ESE night (unlit)
26 Feb - 23:37:32 10° WSW 23:42:09 29° S 23:48:17 10° SE night (unlit)
27 Feb - 01:41:13 10° WSW 01:45:22 17° SSW 01:50:29 10° SSE night (unlit)
27 Feb - 21:00:54 10° SW 21:04:37 25° SSE 21:08:58 10° ESE night (unlit)
27 Feb - 23:03:02 10° WSW 23:07:23 29° S 23:13:01 10° SE night (unlit)
28 Feb - 01:06:29 10° WSW 01:10:29 18° SSW 01:15:28 10° SSE night (unlit)
28 Feb - 20:26:29 10° SW 20:29:59 23° SSE 20:33:51 10° ESE visible
28 Feb - 22:28:33 10° WSW 22:32:39 28° S 22:37:49 10° SE night (unlit)
